Location: Asbacherhof
(48.8543°N, 10.7903°E)
Time: 17:05:12
(UTC+00:00)

Cosmos 1544 Rocket - Pass Details

Date: 26 May 2022
Orbit: 603 x 631 km, 82.5° (Epoch: 06 July)

Event Time Altitude Azimuth Distance (km) Brightness Sun altitude
Rises 01:03:35 0° 349° (N) 2,922 7.9 -15.9°
Reaches altitude 10° 01:05:50 10° 350° (N) 2,006 7.0 -15.7°
Maximum altitude 01:10:17 87° 261° (W) 628 3.5 -15.4°
Enters shadow 01:13:17 20° 173° (S) 1,426 4.9 -15.2°
